Reno - Stead, NV

8:50 AM PST on November 12, 2019 (GMT -0800)
Reno - Stead

Weather History for KRTS - October, 2019

Change the Weather History Date:

Saturday, October 12, 2019

  Actual Average (WUND) Record (WUND)
Temperature  
Mean Temperature 46 °F -  
Max Temperature 68 °F - - (-1)
Min Temperature 23 °F - - (-1)
Degree Days  
Heating Degree Days 20    
Moisture  
Dew Point 7 °F    
Average Humidity 27    
Maximum Humidity 59    
Minimum Humidity 8    
Precipitation  
Precipitation 0.00 in - - ()
Sea Level Pressure  
Sea Level Pressure 30.06 in    
Wind  
Wind Speed 3 mph (NNE)    
Max Wind Speed 9 mph    
Max Gust Speed 12 mph    
Visibility 9 miles    
Events      
Averages and records for this station are not official NWS values.
T = Trace of Precipitation, MM = Missing Value Source: NWS Daily Summary

Daily Weather History Graph

Daily Weather History Graph

Search for Another Location

Airport or City:

Astronomy

Oct. 12, 2019 Rise Set
Actual Time 7:06 AM PDT 6:24 PM PDT
Civil Twilight 6:39 AM PDT 6:51 PM PDT
Nautical Twilight 6:08 AM PDT 7:23 PM PDT
Astronomical Twilight 5:36 AM PDT 7:54 PM PDT
Moon 6:22 PM PDT 5:48 AM PDT
Length of Visible Light 12h 12m
Length of Day
11h 18m
Waxing Gibbous, 99% of the Moon is Illuminated
Oct 12
Waxing Gibbous
Oct 13
Full
Oct 21
Last Quarter
Oct 27
New
Nov 4
First Quarter

Hourly Weather History & Observations

Time (PDT) Temp. Windchill Dew Point Humidity Pressure Visibility Wind Dir Wind Speed Gust Speed Precip Events Conditions
12:15 AM 26.6 °F - 1.4 °F 34% 30.14 in 10.0 mi Calm Calm - N/A   Clear
12:35 AM 28.4 °F 22.2 °F 1.4 °F 31% 30.14 in 10.0 mi North 5.8 mph - N/A   Clear
12:55 AM 28.4 °F 21.2 °F 3.2 °F 34% 30.14 in 10.0 mi NNW 6.9 mph - N/A   Clear
1:15 AM 28.4 °F 24.6 °F 3.2 °F 34% 30.13 in 10.0 mi NNW 3.5 mph - N/A   Clear
1:35 AM 32.0 °F 28.7 °F 3.2 °F 30% 30.13 in 10.0 mi NW 3.5 mph - N/A   Clear
1:55 AM 26.6 °F - 3.2 °F 37% 30.13 in 10.0 mi Calm Calm - N/A   Clear
2:15 AM 28.4 °F 23.3 °F 3.2 °F 34% 30.13 in 10.0 mi NNW 4.6 mph - N/A   Clear
2:35 AM 28.4 °F 22.2 °F 3.2 °F 34% 30.12 in 10.0 mi NNW 5.8 mph - N/A   Clear
2:55 AM 26.6 °F 19.1 °F 3.2 °F 37% 30.12 in 10.0 mi North 6.9 mph - N/A   Clear
3:15 AM 28.4 °F - 3.2 °F 34% 30.12 in 10.0 mi Calm Calm - N/A   Clear
3:35 AM 28.4 °F - 14.0 °F 55% 30.11 in 10.0 mi Calm Calm - N/A   Clear
3:55 AM 23.0 °F - 3.2 °F 43% 30.11 in 10.0 mi Calm Calm - N/A   Clear
4:15 AM 24.8 °F - 3.2 °F 40% 30.10 in 10.0 mi Calm Calm - N/A   Clear
4:35 AM 28.4 °F 24.6 °F 6.8 °F 40% 30.10 in 10.0 mi North 3.5 mph - N/A   Clear
4:55 AM 28.4 °F - 6.8 °F 40% 30.10 in 10.0 mi Calm Calm - N/A   Clear
5:15 AM 28.4 °F 23.3 °F 5.0 °F 37% 30.10 in 10.0 mi North 4.6 mph - N/A   Clear
5:35 AM 28.4 °F - 8.6 °F 43% 30.09 in 10.0 mi Calm Calm - N/A   Clear
5:55 AM 23.0 °F - 5.0 °F 46% 30.10 in 10.0 mi Calm Calm - N/A   Clear
6:15 AM 23.0 °F 18.4 °F 6.8 °F 50% 30.10 in 10.0 mi NNW 3.5 mph - N/A   Clear
6:35 AM 26.6 °F 21.2 °F 6.8 °F 43% 30.10 in 10.0 mi North 4.6 mph - N/A   Clear
6:55 AM 24.8 °F - 5.0 °F 43% 30.10 in 10.0 mi Calm Calm - N/A   Partly Cloudy
7:15 AM 24.8 °F - 6.8 °F 46% 30.11 in 10.0 mi Calm Calm - N/A   Partly Cloudy
7:35 AM 24.8 °F - 10.4 °F 54% 30.11 in 10.0 mi Calm Calm - N/A   Clear
7:55 AM 26.6 °F - 14.0 °F 59% 30.11 in 10.0 mi Calm Calm - N/A   Clear
8:15 AM 32.0 °F - 8.6 °F 38% 30.11 in 10.0 mi Calm Calm - N/A   Clear
8:35 AM 33.8 °F - 10.4 °F 38% 30.11 in 10.0 mi Calm Calm - N/A   Clear
8:55 AM 37.4 °F - 10.4 °F 33% 30.11 in 10.0 mi Calm Calm - N/A   Clear
9:15 AM 39.2 °F - 15.8 °F 39% 30.11 in 10.0 mi Calm Calm - N/A   Clear
9:35 AM 41.0 °F - 12.2 °F 31% 30.11 in 10.0 mi Calm Calm - N/A   Clear
9:55 AM 44.6 °F - 8.6 °F 23% 30.11 in 10.0 mi Calm Calm - N/A   Clear
10:15 AM 48.2 °F - 12.2 °F 24% 30.11 in 10.0 mi Calm Calm - N/A   Clear
10:35 AM 50.0 °F - 10.4 °F 20% 30.10 in 10.0 mi Calm Calm - N/A   Clear
10:55 AM 51.8 °F - 8.6 °F 18% 30.10 in 10.0 mi Calm Calm - N/A   Clear
11:15 AM 53.6 °F - 8.6 °F 16% 30.09 in 10.0 mi Variable 4.6 mph - N/A   Clear
11:35 AM 55.4 °F - 6.8 °F 14% 30.09 in 10.0 mi SSE 5.8 mph 11.5 mph N/A   Clear
11:55 AM 57.2 °F - 5.0 °F 12% 30.08 in 10.0 mi ESE 4.6 mph - N/A   Clear
12:15 PM 57.2 °F - 3.2 °F 11% 30.08 in 10.0 mi Variable 3.5 mph - N/A   Clear
12:35 PM 59.0 °F - 3.2 °F 11% 30.07 in 10.0 mi SSE 4.6 mph - N/A   Clear
12:55 PM 60.8 °F - 5.0 °F 11% 30.06 in 8.0 mi SE 4.6 mph - N/A   Clear
1:15 PM 60.8 °F - 3.2 °F 10% 30.05 in 9.0 mi ESE 3.5 mph - N/A   Clear
1:35 PM 62.6 °F - 3.2 °F 9% 30.04 in 8.0 mi Variable 4.6 mph - N/A   Clear
1:55 PM 62.6 °F - 5.0 °F 10% 30.04 in 7.0 mi SE 4.6 mph - N/A   Clear
2:15 PM 64.4 °F - 8.6 °F 11% 30.03 in 10.0 mi SSE 5.8 mph - N/A   Clear
2:35 PM 64.4 °F - 8.6 °F 11% 30.02 in 9.0 mi Variable 4.6 mph - N/A   Clear
3:15 PM 66.2 °F - 6.8 °F 10% 30.01 in 10.0 mi ESE 4.6 mph - N/A   Clear
3:35 PM 66.2 °F - 5.0 °F 9% 30.00 in 10.0 mi SE 6.9 mph - N/A   Clear
3:55 PM 66.2 °F - 5.0 °F 9% 30.00 in 10.0 mi SSE 6.9 mph - N/A   Clear
4:15 PM 68.0 °F - 5.0 °F 8% 29.99 in 10.0 mi SE 5.8 mph - N/A   Clear
4:35 PM 66.2 °F - 5.0 °F 9% 29.99 in 10.0 mi East 8.1 mph - N/A   Clear
4:55 PM 66.2 °F - 5.0 °F 9% 29.99 in 10.0 mi East 6.9 mph - N/A   Clear
5:15 PM 64.4 °F - 5.0 °F 10% 29.99 in 10.0 mi East 9.2 mph - N/A   Clear
5:35 PM 64.4 °F - 5.0 °F 10% 29.99 in 10.0 mi East 6.9 mph - N/A   Clear
5:55 PM 60.8 °F - 8.6 °F 13% 29.99 in 10.0 mi East 5.8 mph - N/A   Clear
6:15 PM 57.2 °F - 8.6 °F 14% 29.98 in 10.0 mi East 5.8 mph - N/A   Clear
6:35 PM 55.4 °F - 8.6 °F 15% 29.99 in 9.0 mi Variable 3.5 mph - N/A   Clear
6:55 PM 57.2 °F - 12.2 °F 17% 29.99 in 10.0 mi SSE 4.6 mph - N/A   Clear
7:15 PM 53.6 °F - 10.4 °F 18% 29.99 in 8.0 mi Calm Calm - N/A   Clear
7:35 PM 48.2 °F - 8.6 °F 20% 30.00 in 4.0 mi North 5.8 mph - N/A   Haze
7:55 PM 44.6 °F 42.2 °F 8.6 °F 23% 30.00 in 3.0 mi North 4.6 mph - N/A   Haze
8:15 PM 44.6 °F 42.2 °F 8.6 °F 23% 30.00 in 10.0 mi NNW 4.6 mph - N/A   Clear
8:35 PM 44.6 °F 40.7 °F 8.6 °F 23% 30.00 in 10.0 mi North 6.9 mph - N/A   Clear
8:55 PM 42.8 °F 38.6 °F 8.6 °F 25% 30.00 in 10.0 mi North 6.9 mph - N/A   Clear
9:15 PM 42.8 °F 41.1 °F 8.6 °F 25% 30.00 in 10.0 mi NNW 3.5 mph - N/A   Clear
9:35 PM 37.4 °F 34.9 °F 8.6 °F 30% 30.00 in 1.2 mi NNW 3.5 mph - N/A   Haze
9:55 PM 37.4 °F 32.1 °F 10.4 °F 33% 30.00 in 5.0 mi NNW 6.9 mph - N/A   Haze
10:15 PM 39.2 °F 35.9 °F 10.4 °F 31% 30.00 in 10.0 mi NNW 4.6 mph - N/A   Clear
10:35 PM 39.2 °F 35.0 °F 10.4 °F 31% 30.00 in 10.0 mi NNW 5.8 mph - N/A   Clear
10:55 PM 35.6 °F 32.8 °F 8.6 °F 33% 30.00 in 0.5 mi North 3.5 mph - N/A   Haze
11:15 PM 33.8 °F 27.0 °F 8.6 °F 35% 30.00 in 1.5 mi NNW 8.1 mph - N/A   Haze
11:35 PM 35.6 °F 30.7 °F 10.4 °F 35% 30.00 in 8.0 mi North 5.8 mph - N/A   Clear
11:55 PM 35.6 °F 30.7 °F 10.4 °F 35% 30.00 in 10.0 mi NNW 5.8 mph - N/A   Clear